Weather past 2 weeks in Saint-Pierre, Saint Pierre and Miquelon

Now
30 °F

Passing clouds.


Feels Like: 15 °F
Forecast: 18 / 32 °F
Wind: 30 mph from West

Location: Saint-Pierre

Current Time: Mar 5, 2015 at 12:02:48 AM

Latest Report: Mar 4, 2015 at 11:00 PM


Visibility: N/A

Pressure: 29.56 "Hg

Humidity: 80%

Dew point: 25 °F

Location of Saint-PierreLocation

Historic Weather in Saint-Pierre — Graph

°F

Saint-Pierre temperature yesterday

Maximum temperature yesterday: 37 °F (at 5:00 PM)
Minimum temperature yesterday: 18 °F (at 6:00 AM)
Average temperature yesterday: 27 °F

Past Weeks' High & Low Weather Summary

 TemperatureHumidityPressure
High37 °F (Feb 20, 7:00 AM)100% (Feb 18, 6:00 AM)30.54 "Hg (Feb 18, 6:00 AM)
Low9 °F (Feb 24, 11:00 AM)51% (Mar 1, 1:00 PM)29.12 "Hg (Mar 2, 7:00 PM)
Average26 °F82%29.85 "Hg
* Reported Feb 18 6:00 AM — Mar 4 11:00 PM, Saint-Pierre, Weather by CustomWeather, © 2015

Note: Actual official high and low records may vary slightly from our data, if they occured in-between our weather recording intervals... More about our weather records

Advertising

Saint-Pierre weather history for previous 24 hours

 ConditionsComfort  
Time TempWeatherWind HumidityBarometerVisibility
11:00 PM
Wed, Mar 4
30 °FPassing clouds.30 mph80%29.56 "HgN/A
10:00 PM30 °FPassing clouds.36 mph86%29.53 "HgN/A
9:00 PM32 °FPassing clouds.30 mph93%29.45 "HgN/A
8:00 PM32 °FPassing clouds.36 mph100%29.42 "HgN/A
7:00 PM34 °FLow clouds.33 mph100%29.36 "Hg5 mi
6:00 PM36 °FLow clouds.36 mph100%29.30 "HgN/A
5:00 PM37 °FDrizzle. Fog.35 mph100%29.27 "Hg1 mi
4:00 PM32 °FLight rain. Ice fog.33 mph100%29.36 "Hg1 mi
3:00 PM28 °FLight snow. Low clouds.32 mph100%29.50 "Hg1 mi
2:00 PM27 °FLight snow. Low clouds.31 mph100%29.62 "Hg1 mi
1:00 PM25 °FLight snow. Low clouds.28 mph100%29.77 "Hg1 mi
12:00 PM23 °FLight snow. Overcast.23 mph93%29.86 "Hg1 mi
11:00 AM21 °FLight snow. Mostly cloudy.20 mph86%29.98 "Hg3 mi
10:00 AM21 °FLight snow. Mostly cloudy.17 mph74%30.01 "Hg4 mi
9:00 AM19 °FMostly cloudy.20 mph73%30.07 "HgN/A
8:00 AM19 °FPartly sunny.18 mph68%30.07 "HgN/A
7:00 AM18 °FPassing clouds.15 mph79%30.07 "HgN/A
6:00 AM18 °FPassing clouds.17 mph79%30.07 "HgN/A
Weather by CustomWeather, © 2015

See weather overviewHow to use our weather pages